Location: *
(40.7873°S, 98.7174°E)
Time: 20:19:45
(UTC+00:00)

Cosmos 2173 Rocket - Visible Passes

Search period start: 27 September 2022 00:00
Search period end: 07 October 2022 00:00
Orbit: 943 x 1001 km, 83.0° (Epoch: 27 September)

Date Brightness Start Highest point End Pass type
(mag) Time Alt. Az. Time Alt. Az. Time Alt. Az.
27 Sep 4.4 20:46:17 10° S 20:52:41 64° E 20:58:55 10° NNE visible
27 Sep 5.3 22:32:59 10° SW 22:37:19 19° W 22:41:36 10° NW visible
28 Sep 6.5 19:27:04 10° SSE 19:31:09 17° ESE 19:35:09 10° ENE visible
28 Sep 3.9 21:10:45 10° S 21:17:10 75° W 21:23:26 10° N visible
29 Sep 5.7 19:50:31 10° SSE 19:56:04 30° ESE 20:01:30 10° NE visible
29 Sep 4.4 21:35:32 10° SSW 21:41:29 42° W 21:47:20 10° NNW visible
30 Sep 4.7 20:14:33 10° S 20:20:48 52° ESE 20:26:54 10° NNE visible
30 Sep 5.0 22:00:45 10° SSW 22:05:39 24° W 22:10:28 10° NW visible
01 Oct 6.6 18:55:57 10° SE 18:59:06 14° ESE 19:02:13 10° E visible
01 Oct 3.9 20:38:54 10° S 20:45:22 90° N 20:51:04 13° N visible
01 Oct 5.6 22:27:03 10° SW 22:29:38 13° WSW 22:32:12 10° WNW visible
02 Oct 5.9 19:18:59 10° SSE 19:24:06 25° ESE 19:29:07 10° NE visible
02 Oct 4.1 21:03:34 10° SSW 21:09:44 52° W 21:13:39 22° NNW visible
03 Oct 5.0 19:42:51 10° S 19:48:54 42° ESE 19:52:17 24° NE visible
03 Oct 4.8 21:28:36 10° SSW 21:33:57 29° W 21:36:47 21° NW visible
04 Oct 6.7 18:25:25 10° SE 18:27:02 11° ESE 18:28:37 10° ESE visible
04 Oct 4.1 20:07:07 10° S 20:13:31 75° E 20:15:41 43° NNE visible
04 Oct 5.5 21:54:21 10° SW 21:57:59 16° W 22:00:13 13° WNW visible
05 Oct 6.1 18:47:32 10° SSE 18:52:06 20° ESE 18:54:43 16° E visible
05 Oct 3.9 20:31:39 10° SSW 20:37:57 63° W 20:39:16 52° NW visible
06 Oct 5.3 19:11:12 10° S 19:16:59 35° ESE 19:18:25 31° E visible
06 Oct 4.5 20:56:32 10° SSW 21:02:13 35° W 21:02:58 34° WNW visible
